Weather History for Curtin, WE

Change the Weather History Date:

Tuesday, March 19, 2013

  Actual Average Record
Temperature  
Mean Temperature 90 °F -  
Max Temperature 104 °F - - ()
Min Temperature 76 °F - - ()
Cooling Degree Days 25    
Growing Degree Days 40 (Base 50)    
Moisture  
Dew Point 73 °F    
Average Humidity 67    
Maximum Humidity 100    
Minimum Humidity 22    
Precipitation  
Precipitation 0.00 in - - ()
Sea Level Pressure  
Sea Level Pressure 29.81 in    
Wind  
Wind Speed 2 mph ()    
Max Wind Speed 8 mph    
Max Gust Speed -    
T = Trace of Precipitation, MM = Missing Value Source: Averaged Metar Reports

Daily Weather History Graph

Daily Weather History Graph

Search for Another Location

Airport:

Trip Planner

Search our weather history database for the weather conditions in past years. The results will help you decide how hot, cold, wet, or windy it might be!

Date:

Astronomy

Mar. 19, 2013 Rise Set
Actual Time 5:48 AM WST 5:56 PM WST
Civil Twilight 5:26 AM WST 6:18 PM WST
Nautical Twilight 5:01 AM WST 6:43 PM WST
Astronomical Twilight 4:36 AM WST 7:08 PM WST
Moon 11:52 AM WST (3/19) 11:20 PM WST (3/19)
Length of Visible Light 12h 51m
Length of Day
12h 08m
Waxing Crescent, 45% of the Moon is Illuminated
Mar 19
Waxing Crescent
Mar 20
First Quarter
Mar 27
Full
Apr 3
Last Quarter
Apr 10
New

Hourly Weather History & Observations

Time (WST) Temp. Heat Index Dew Point Humidity Pressure Visibility Wind Dir Wind Speed Gust Speed Precip Events Conditions
12:00 AM 81 °F - 78 °F 87% 29.79 in - Calm Calm - -  
12:00 AM 80.6 °F 87.1 °F 77.0 °F 89% 29.80 in - Calm Calm - N/A   Unknown
1:00 AM 78.8 °F - 77.0 °F 94% 29.80 in - Calm Calm - N/A   Unknown
2:00 AM 78.8 °F - 77.0 °F 94% 29.80 in - Calm Calm - N/A   Unknown
3:00 AM 77 °F - 75 °F 92% 29.79 in - North 3.5 mph - -  
3:00 AM 77.0 °F - 75.2 °F 94% 29.80 in - North 3.5 mph - N/A   Unknown
4:00 AM 77.0 °F - 75.2 °F 94% 29.80 in - Calm Calm - N/A   Unknown
5:00 AM 77.0 °F - 75.2 °F 94% 29.83 in - Calm Calm - N/A   Unknown
6:00 AM 78 °F - 77 °F 95% 29.83 in - Calm Calm - -  
6:00 AM 77.0 °F - 77.0 °F 100% 29.83 in - Calm Calm - N/A   Unknown
7:00 AM 80.6 °F 89.3 °F 80.6 °F 100% 29.86 in - Calm Calm - N/A   Unknown
8:00 AM 84.2 °F 98.3 °F 80.6 °F 89% 29.86 in - West 3.5 mph - N/A   Unknown
9:00 AM 90 °F - 77 °F 58% 29.87 in - SSE 1.2 mph - -  
9:00 AM 89.6 °F 102.2 °F 77.0 °F 66% 29.89 in - SSE 1.2 mph - N/A   Unknown
10:00 AM 95.0 °F 109.7 °F 77.0 °F 56% 29.86 in - SE 3.5 mph - N/A   Unknown
11:00 AM 96.8 °F 107.3 °F 73.4 °F 47% 29.83 in - SSE 3.5 mph - N/A   Unknown
12:00 PM 101 °F - 68 °F 25% 29.81 in - NNE 5.8 mph - -  
12:00 PM 102.2 °F 108.4 °F 68.0 °F 33% 29.80 in - NNE 5.8 mph - N/A   Unknown
1:00 PM 102.2 °F 105.5 °F 64.4 °F 29% 29.80 in - NE 4.6 mph - N/A   Unknown
2:00 PM 102.2 °F 105.5 °F 64.4 °F 29% 29.77 in - ENE 6.9 mph - N/A   Unknown
3:00 PM 103 °F - 67 °F 22% 29.76 in - ENE 8.1 mph - -  
3:00 PM 102.2 °F 108.4 °F 68.0 °F 33% 29.77 in - ENE 8.1 mph - N/A   Unknown
4:00 PM 100.4 °F 104.9 °F 66.2 °F 33% 29.77 in - East 5.8 mph - N/A   Unknown
5:00 PM 98.6 °F 109.2 °F 73.4 °F 44% 29.77 in - ENE 3.5 mph - N/A   Unknown
6:00 PM 91 °F - 74 °F 49% 29.78 in - East 3.5 mph - -  
6:00 PM 91.4 °F 100.1 °F 73.4 °F 55% 29.77 in - East 3.5 mph - N/A   Unknown
7:00 PM 86.0 °F 93.4 °F 73.4 °F 66% 29.80 in - East 3.5 mph - N/A   Unknown
8:00 PM 82.4 °F 88.2 °F 73.4 °F 74% 29.83 in - ESE 4.6 mph - N/A   Unknown
9:00 PM 80 °F - 71 °F 69% 29.83 in - Calm Calm - -  
9:00 PM 80.6 °F 84.6 °F 71.6 °F 74% 29.83 in - Calm Calm - N/A   Unknown
10:00 PM 78.8 °F - 69.8 °F 74% 29.83 in - Calm Calm - N/A   Unknown
11:00 PM 77.0 °F - 68.0 °F 74% 29.83 in - ESE 3.5 mph - N/A   Unknown